Temp
13 13 13 13 13 13 13 13 13 13 13 13 12 12 12 12 12 12 13 13 13 13 13 13 13 13 12 12 12 12 12 12 12 12 12 12 12 12 12 12 12 12 12 12 12 12 12 12 11 11 11 11 11 11 11 11 11 11 11 11 11 11 10 10 10 10 10 10 10 10 10 10 10 10 10 10 10 10 10 10 10 10 10 10 10 10
13 13 13 13 13 13 13 13 13 13 13 12 12 12 12 12 12 13 13 13 13 13 14 13 13 13 12 12 12 12 12 12 12 12 12 12 12 12 12 12 12 12 12 12 12 12 11 11 11 11 11 11 11 11 11 11 11 11 11 11 10 10 10 10 10 10 10 10 10 10 10 10 10 10 10 10 10 10 10 10 10 9 9 9 9 10
13 12 12 12 12 13 13 13 13 13 13 13 12 12 12 12 12 13 13 13 13 13 13 13 13 13 12 12 12 12 12 12 12 12 12 12 12 12 12 12 12 12 12 11 11 11 11 11 11 11 11 11 11 11 11 11 11 11 10 10 10 10 10 10 10 10 10 10 10 10 9 9 9 9 9 9 9 9 9 9 9 9 9 9 9 9
12 12 12 12 12 12 12 13 13 13 13 13 12 12 12 12 12 13 13 13 13 13 13 13 13 13 12 12 12 12 12 12 12 12 12 12 12 12 11 11 11 11 11 11 11 11 11 11 11 11 11 11 11 11 11 11 11 10 10 10 10 10 10 10 9 9 9 9 9 9 9 9 9 9 9 9 9 9 9 8 8 8 8 9 9 9
12 12 12 12 12 12 12 12 13 13 13 12 12 11 12 12 12 13 13 13 13 13 13 13 13 13 12 12 12 12 12 12 12 12 12 12 11 11 11 11 11 11 11 11 11 11 11 11 11 11 11 11 11 11 11 11 11 10 10 10 10 10 10 10 9 9 9 9 9 9 9 9 9 9 9 8 8 8 8 8 8 8 8 8 8 9
12 12 12 12 12 12 12 12 12 12 12 11 11 11 11 11 11 12 12 12 12 13 13 13 12 12 12 12 12 12 12 12 12 12 12 11 11 11 11 11 11 11 11 11 11 11 11 11 11 11 11 11 11 11 11 11 10 10 10 10 10 10 10 10 9 9 9 9 9 9 9 9 9 9 8 8 8 8 8 8 8 8 8 8 8 8
11 12 12 12 12 12 12 12 12 12 11 11 10 10 10 10 10 11 11 11 11 11 12 12 12 12 12 12 12 12 12 12 12 11 11 11 11 11 11 11 11 11 11 11 11 11 11 11 11 11 11 11 10 10 10 10 10 10 10 10 10 10 10 10 9 9 9 9 9 9 9 9 9 9 8 8 8 8 8 8 8 8 8 8 8 8
11 11 11 11 11 11 11 11 11 11 11 10 10 10 10 10 10 10 10 10 10 10 10 11 11 12 12 12 12 12 12 11 11 11 11 11 11 11 11 11 11 11 11 11 11 11 11 11 11 11 11 11 10 10 10 10 10 10 10 10 10 10 10 9 9 9 9 9 9 9 9 9 9 9 8 8 8 8 8 8 8 8 8 8 8 8
11 11 11 11 11 11 11 10 10 11 11 10 10 10 10 9 10 10 10 10 10 10 10 10 10 11 11 11 11 11 11 11 11 11 11 11 10 10 11 11 11 11 11 11 11 11 11 11 11 11 11 11 10 10 10 10 10 10 10 10 10 10 9 9 9 9 9 9 9 9 9 9 9 9 8 8 8 8 8 8 8 8 8 8 8 8
10 10 10 10 10 11 11 10 10 10 10 10 10 10 10 10 9 10 10 10 10 10 10 10 10 10 10 10 10 10 11 11 11 10 10 10 10 10 10 10 10 10 10 11 11 11 11 11 11 11 10 10 10 10 10 10 10 10 10 10 9 9 9 9 9 9 9 9 9 9 9 9 9 9 8 8 8 8 8 8 8 8 8 8 8 8
9 9 10 10 10 10 10 10 10 10 10 10 10 10 10 10 9 9 9 9 9 10 10 9 9 9 9 9 9 9 9 10 10 10 10 10 10 10 10 10 10 10 10 10 10 10 10 10 10 10 10 10 10 10 10 10 10 10 10 9 9 9 9 9 9 9 9 9 9 9 9 9 9 8 8 8 8 8 8 8 8 7 7 7 7 7
9 9 9 9 9 9 9 9 9 9 9 9 9 9 9 9 9 9 9 9 9 9 9 8 8 8 8 9 9 9 9 9 9 9 9 9 9 9 9 9 9 10 10 10 10 10 10 10 10 10 10 10 10 10 10 10 10 10 9 9 9 9 9 9 9 9 9 9 9 9 9 9 8 8 8 8 8 8 8 8 7 7 7 7 7 7
8 8 8 8 8 8 9 8 8 8 8 9 9 9 9 9 9 9 9 8 8 8 8 8 8 8 8 8 8 8 8 9 9 9 9 9 9 9 9 9 9 9 9 9 9 9 9 9 10 10 10 10 10 10 9 9 9 9 9 9 9 9 9 9 9 9 9 9 9 8 8 8 8 8 8 8 8 8 8 7 7 7 7 7 7 7
7 8 8 7 7 7 7 7 7 7 7 8 8 9 9 9 9 9 8 8 8 8 7 7 7 7 7 7 7 7 7 8 8 9 8 8 8 8 9 9 9 9 9 9 9 9 9 9 9 9 9 9 9 9 9 9 9 9 9 9 9 9 9 9 9 9 9 8 8 8 8 8 8 8 8 8 8 7 7 7 7 7 7 7 7 7
6 7 6 6 5 5 5 5 6 6 6 6 7 8 8 8 8 8 8 7 7 7 7 7 6 6 6 6 6 6 6 7 7 7 7 7 7 8 8 8 8 9 9 9 9 9 9 9 9 9 9 9 9 9 9 9 9 9 9 9 9 9 9 9 8 8 8 8 8 8 8 8 8 8 7 7 7 7 7 7 7 7 7 7 7 7
6 6 5 5 4 4 4 4 4 4 4 5 6 6 7 7 7 7 7 7 7 7 7 6 6 5 5 6 6 6 6 6 6 6 6 6 7 7 7 7 8 8 8 8 8 8 8 8 8 8 8 8 8 9 9 9 9 8 8 8 8 8 8 8 8 8 8 8 8 8 7 7 7 7 7 7 7 7 7 7 7 7 7 7 6 6
5 5 5 4 3 3 3 3 4 4 4 4 5 6 6 6 6 6 7 7 7 7 6 6 6 5 5 5 5 5 5 5 5 5 5 5 6 6 6 7 7 8 8 8 8 8 8 8 8 8 8 8 8 8 8 8 8 8 8 8 8 8 8 8 8 7 7 7 7 7 7 7 7 7 7 7 6 6 6 6 6 6 6 6 6 6
3 3 4 3 3 2 3 3 3 3 4 4 4 5 5 6 6 6 6 6 6 6 6 6 6 6 5 4 4 5 5 5 5 5 5 5 5 5 5 6 7 7 7 7 7 7 7 7 7 7 7 7 7 7 8 7 7 7 7 7 7 7 7 7 7 7 7 7 7 7 7 7 6 6 6 6 6 6 6 6 6 6 6 6 6 6
1 1 2 2 2 1 1 1 2 2 3 3 3 4 5 5 5 6 6 6 6 6 6 6 6 6 5 3 3 3 4 5 5 5 5 4 4 5 5 5 6 7 7 7 7 7 7 7 7 7 7 7 7 7 7 7 7 7 7 7 7 7 7 7 6 6 6 6 6 6 6 6 6 6 6 6 6 6 6 6 6 6 6 6 6 6
-0 -0 0 1 1 1 0 0 1 1 1 2 2 3 3 4 5 5 5 5 5 5 6 5 4 3 3 2 3 3 4 4 4 4 4 4 4 4 5 5 6 6 6 6 6 6 6 6 6 6 6 6 6 6 6 6 6 6 6 6 6 6 6 6 6 6 6 6 6 6 5 5 5 5 5 5 5 6 6 6 6 6 6 6 6 6
-1 -1 -1 -0 -0 -0 -0 -0 -0 0 0 1 2 2 2 2 3 3 3 4 4 5 5 4 3 3 3 3 3 3 3 4 4 4 4 4 4 4 5 5 6 6 6 6 6 6 6 6 6 6 5 6 6 6 6 6 6 6 6 6 6 6 6 6 6 6 5 5 5 5 5 5 5 5 5 5 5 5 5 5 5 5 5 5 5 5
-1 -1 -1 -0 -0 -0 -0 -1 -1 -0 0 1 1 1 1 1 1 1 2 2 3 3 3 3 2 2 2 2 2 2 3 4 4 4 4 4 4 4 4 5 5 5 5 5 5 5 5 5 5 5 5 5 5 5 5 5 5 5 5 5 5 5 5 5 5 5 5 5 4 4 4 4 4 5 5 5 5 5 5 5 5 5 5 5 5 5
-1 -1 -1 -0 -0 -0 -0 -0 -0 -0 -0 0 0 0 0 0 0 0 1 1 1 1 1 1 1 2 2 2 2 2 3 3 3 3 3 3 3 3 4 4 4 4 4 5 5 5 5 5 5 5 4 4 4 4 4 4 5 5 5 5 5 5 5 5 4 4 4 4 4 4 4 4 4 4 4 4 4 4 4 4 4 4 4 4 4 4
-1 -1 -0 -0 -0 -0 -0 -0 -0 -0 -0 -0 -0 -0 -0 0 0 0 0 0 1 1 1 1 1 1 1 1 2 2 3 3 3 3 3 2 1 2 3 3 4 4 4 4 4 4 4 5 4 4 4 4 4 4 4 4 4 4 4 4 4 4 4 4 4 4 4 4 4 4 4 4 4 3 3 4 4 4 4 4 4 4 4 3 4 4
-1 -0 -0 -0 -0 -0 -0 -0 -0 -0 -0 -0 -0 -0 -0 -0 -0 0 0 0 0 1 1 1 1 0 0 0 1 1 1 2 3 3 2 1 1 1 2 2 2 2 3 3 3 4 4 4 4 4 4 4 3 3 3 4 4 4 4 4 4 4 3 3 3 3 3 3 3 3 3 3 3 3 3 3 3 3 3 3 3 3 3 3 3 3
-0 -0 -0 -0 -0 -0 -0 -0 -0 -0 -1 -1 -0 -0 -0 -0 -0 0 0 0 0 0 1 0 -0 -0 -1 -1 -1 -1 -0 1 1 2 2 1 1 0 1 1 1 2 2 2 3 3 4 4 4 4 4 4 3 3 3 3 3 3 3 3 3 3 3 3 3 3 3 3 3 3 3 3 2 2 2 2 2 2 2 2 2 2 2 2 2 3
-1 -1 -1 -1 -1 -1 -1 -1 -1 -1 -1 -1 -1 -0 -0 -0 -0 -0 -1 -1 -0 -0 0 -0 -0 -1 -1 -1 -2 -2 -1 -0 0 1 1 1 1 0 0 1 1 1 2 2 2 3 3 3 3 3 3 3 3 3 3 3 3 3 3 3 2 2 2 2 2 2 2 2 2 2 2 2 2 2 2 2 2 2 2 2 1 1 1 1 2 2
-2 -2 -2 -2 -2 -2 -2 -2 -2 -1 -1 -1 -1 -1 -0 -0 -1 -1 -2 -1 -1 -0 -0 -0 -0 -0 -1 -1 -2 -2 -1 -1 -1 -0 0 1 1 0 0 0 1 1 2 2 2 2 2 3 2 3 3 3 3 3 2 2 2 2 2 2 2 2 2 2 2 2 2 2 2 2 2 1 1 1 1 1 1 1 1 1 1 1 1 1 1 1
-2 -2 -2 -2 -2 -2 -2 -2 -2 -2 -2 -2 -1 -1 -1 -1 -1 -2 -2 -2 -1 -1 -0 -0 -0 -1 -1 -2 -2 -2 -2 -2 -2 -1 -1 -0 -0 -0 -0 0 1 1 2 2 2 2 2 2 2 2 2 2 2 2 2 2 2 2 2 2 2 2 1 2 2 2 2 1 1 1 1 1 1 1 1 1 0 0 0 0 0 0 -0 0 0 0
-3 -3 -3 -3 -3 -3 -2 -2 -3 -3 -3 -2 -2 -2 -2 -2 -2 -2 -2 -2 -2 -1 -1 -1 -1 -1 -2 -2 -2 -2 -2 -3 -2 -2 -1 -1 -1 -1 -1 0 0 1 1 2 2 1 1 1 2 2 2 2 2 2 2 1 1 1 1 1 1 1 1 1 1 1 1 1 1 1 1 0 0 0 0 -0 -0 -0 -0 -0 -0 -0 -0 -0 -0 -0
-4 -4 -4 -4 -4 -3 -3 -3 -3 -3 -3 -3 -3 -3 -3 -3 -3 -3 -2 -2 -2 -2 -2 -2 -2 -2 -2 -1 -2 -2 -3 -3 -3 -2 -2 -2 -2 -2 -1 -1 -0 -0 0 1 0 -0 0 1 1 1 1 1 1 1 1 1 1 1 1 1 1 1 1 1 1 1 1 1 0 0 0 -0 -0 -0 -0 -0 -1 -1 -1 -1 -1 -1 -1 -1 -1 -0
-5 -5 -5 -5 -4 -4 -4 -4 -4 -3 -3 -3 -3 -3 -3 -3 -3 -3 -3 -3 -3 -3 -3 -3 -3 -3 -2 -2 -3 -3 -4 -4 -4 -3 -2 -2 -2 -2 -2 -2 -1 -1 -1 -0 -1 -1 -2 -1 -0 0 1 1 1 1 1 1 1 1 1 1 1 1 1 1 1 0 0 0 -0 -0 -0 -1 -1 -1 -1 -1 -1 -1 -1 -1 -1 -1 -1 -1 -1 -1
-5 -5 -5 -5 -5 -5 -5 -4 -4 -4 -4 -4 -4 -4 -4 -4 -4 -4 -4 -3 -3 -3 -3 -3 -3 -3 -3 -3 -4 -5 -5 -5 -4 -3 -3 -3 -3 -3 -2 -2 -2 -2 -1 -1 -1 -2 -3 -2 -1 -0 0 1 1 1 0 0 0 0 0 1 1 0 0 0 0 -0 -0 -1 -1 -1 -1 -1 -1 -1 -1 -1 -1 -1 -1 -1 -1 -1 -1 -1 -1 -1
-6 -6 -6 -5 -5 -5 -5 -5 -5 -5 -5 -5 -5 -5 -5 -5 -5 -5 -4 -4 -4 -4 -4 -4 -4 -4 -4 -4 -5 -5 -5 -5 -4 -4 -3 -3 -3 -3 -3 -2 -2 -2 -2 -2 -1 -1 -2 -2 -2 -1 -1 0 0 0 0 -0 -0 -0 -0 -0 -0 -0 -0 -1 -1 -1 -1 -1 -1 -1 -1 -1 -1 -1 -1 -1 -1 -1 -2 -2 -2 -2 -2 -2 -2 -2
-6 -6 -6 -6 -6 -6 -6 -6 -6 -6 -6 -6 -6 -6 -6 -6 -6 -6 -6 -5 -5 -4 -4 -4 -4 -4 -4 -4 -5 -5 -5 -5 -4 -4 -4 -4 -3 -3 -3 -3 -3 -3 -3 -3 -3 -2 -2 -3 -3 -3 -2 -1 -0 -0 -0 -1 -1 -1 -1 -1 -1 -1 -1 -1 -1 -2 -2 -2 -2 -2 -2 -2 -2 -2 -2 -2 -2 -2 -2 -2 -2 -2 -2 -2 -2 -2
-6 -7 -7 -7 -7 -7 -7 -7 -7 -7 -7 -7 -7 -7 -7 -7 -7 -6 -6 -6 -6 -5 -5 -5 -5 -5 -4 -4 -5 -5 -5 -5 -5 -4 -4 -4 -4 -4 -4 -4 -4 -3 -3 -3 -3 -3 -3 -3 -3 -3 -3 -3 -2 -1 -1 -1 -1 -1 -1 -2 -2 -2 -2 -2 -2 -2 -2 -2 -2 -2 -2 -2 -2 -2 -2 -2 -2 -2 -2 -2 -2 -2 -2 -2 -2 -2
-7 -8 -8 -8 -8 -8 -8 -7 -7 -7 -7 -7 -7 -7 -7 -7 -7 -7 -6 -6 -6 -6 -6 -6 -5 -5 -5 -5 -5 -5 -5 -5 -5 -5 -4 -4 -4 -4 -4 -4 -4 -4 -4 -4 -4 -4 -4 -4 -4 -4 -3 -3 -3 -2 -2 -2 -2 -2 -2 -2 -2 -2 -2 -2 -3 -3 -3 -3 -3 -3 -2 -2 -2 -2 -2 -2 -2 -2 -2 -2 -2 -2 -2 -2 -2 -2
-8 -9 -9 -8 -8 -8 -8 -8 -8 -8 -8 -8 -8 -7 -7 -7 -7 -7 -7 -7 -6 -6 -6 -6 -6 -6 -6 -6 -6 -6 -6 -5 -5 -5 -5 -5 -5 -5 -4 -4 -4 -4 -4 -4 -4 -4 -4 -4 -4 -5 -4 -3 -3 -3 -3 -3 -3 -3 -3 -3 -3 -3 -2 -3 -3 -3 -3 -3 -3 -3 -3 -3 -3 -3 -3 -3 -3 -2 -2 -2 -2 -2 -2 -2 -2 -2
-9 -9 -9 -9 -9 -9 -8 -8 -8 -8 -8 -8 -8 -8 -8 -8 -7 -7 -7 -7 -7 -7 -6 -6 -6 -6 -6 -6 -6 -6 -6 -6 -5 -5 -5 -5 -5 -5 -5 -5 -5 -5 -5 -5 -4 -4 -4 -4 -4 -4 -4 -4 -4 -4 -4 -4 -4 -4 -4 -3 -3 -3 -3 -3 -3 -3 -3 -3 -3 -3 -3 -3 -3 -3 -3 -3 -3 -3 -3 -3 -3 -3 -2 -2 -2 -2
-10 -10 -10 -9 -9 -9 -9 -9 -9 -8 -8 -8 -8 -8 -8 -8 -8 -7 -7 -7 -7 -7 -7 -7 -6 -6 -6 -6 -6 -6 -6 -6 -6 -6 -6 -5 -5 -5 -5 -5 -5 -5 -5 -5 -5 -5 -5 -5 -4 -4 -4 -4 -4 -4 -4 -4 -4 -4 -4 -4 -3 -3 -3 -3 -3 -3 -3 -3 -3 -3 -3 -3 -3 -3 -3 -3 -3 -3 -3 -3 -3 -3 -3 -3 -3 -3
-10 -10 -10 -10 -9 -9 -9 -9 -9 -9 -8 -8 -8 -8 -8 -8 -8 -8 -7 -7 -7 -7 -7 -7 -7 -7 -7 -6 -6 -6 -6 -6 -6 -6 -6 -6 -6 -6 -5 -5 -5 -5 -5 -5 -5 -5 -5 -5 -5 -5 -5 -5 -4 -4 -4 -4 -4 -4 -4 -4 -4 -4 -4 -4 -4 -4 -4 -3 -3 -3 -3 -3 -3 -4 -4 -4 -4 -4 -4 -4 -4 -4 -4 -4 -4 -3
-10 -10 -10 -10 -9 -9 -9 -9 -9 -9 -9 -8 -8 -8 -8 -8 -8 -8 -8 -8 -7 -7 -7 -7 -7 -7 -7 -7 -7 -6 -6 -6 -6 -6 -6 -6 -6 -6 -6 -6 -6 -5 -5 -5 -5 -5 -5 -5 -5 -5 -5 -5 -5 -5 -5 -5 -4 -4 -4 -4 -4 -4 -4 -4 -4 -4 -4 -4 -4 -4 -4 -4 -4 -4 -4 -4 -4 -4 -4 -4 -4 -4 -4 -4 -4 -4
-10 -10 -10 -10 -9 -9 -9 -9 -9 -9 -9 -9 -9 -9 -9 -9 -9 -8 -8 -8 -8 -8 -8 -8 -7 -7 -7 -7 -7 -7 -7 -7 -7 -7 -6 -6 -6 -6 -6 -6 -6 -6 -6 -5 -5 -5 -5 -5 -5 -5 -5 -5 -5 -5 -5 -5 -5 -5 -4 -4 -4 -4 -4 -4 -4 -4 -4 -4 -4 -4 -4 -4 -4 -5 -5 -5 -4 -4 -4 -4 -4 -4 -4 -4 -4 -4
-10 -10 -10 -10 -9 -9 -9 -9 -9 -9 -9 -9 -9 -9 -9 -9 -9 -9 -9 -9 -9 -9 -8 -8 -8 -7 -7 -7 -7 -7 -7 -7 -7 -7 -7 -7 -7 -7 -6 -6 -6 -6 -6 -6 -6 -6 -6 -6 -5 -5 -6 -5 -5 -5 -5 -5 -5 -5 -5 -5 -5 -5 -5 -5 -5 -4 -4 -4 -4 -4 -4 -5 -5 -5 -5 -5 -5 -4 -4 -4 -4 -4 -4 -4 -4 -4
-10 -10 -10 -10 -9 -9 -9 -9 -9 -9 -9 -9 -9 -10 -10 -9 -9 -9 -9 -9 -9 -9 -9 -8 -8 -8 -8 -8 -8 -8 -7 -7 -7 -7 -7 -7 -7 -7 -7 -7 -7 -7 -7 -7 -6 -6 -6 -6 -6 -6 -6 -6 -6 -6 -6 -6 -5 -5 -5 -5 -5 -5 -5 -5 -5 -4 -4 -4 -4 -5 -5 -5 -5 -5 -5 -5 -5 -4 -4 -4 -4 -4 -4 -4 -4 -4
-10 -10 -10 -10 -10 -10 -10 -10 -10 -10 -10 -10 -10 -10 -10 -10 -10 -9 -9 -9 -9 -9 -9 -9 -9 -9 -9 -9 -9 -8 -8 -8 -8 -7 -7 -7 -7 -7 -7 -7 -7 -7 -7 -7 -7 -7 -7 -7 -7 -7 -6 -6 -6 -6 -6 -6 -6 -5 -5 -5 -5 -5 -5 -5 -5 -5 -5 -5 -5 -5 -5 -5 -5 -5 -5 -5 -5 -5 -4 -4 -4 -4 -4 -4 -4 -4
-11 -11 -11 -11 -10 -10 -10 -10 -10 -10 -10 -10 -10 -10 -10 -10 -10 -10 -10 -10 -10 -9 -9 -9 -9 -9 -9 -9 -9 -9 -9 -9 -8 -8 -8 -8 -7 -7 -7 -7 -7 -7 -7 -7 -7 -7 -7 -7 -7 -7 -7 -7 -6 -6 -6 -6 -6 -6 -5 -5 -5 -5 -5 -5 -5 -5 -5 -5 -5 -6 -6 -5 -5 -5 -5 -5 -5 -5 -5 -5 -5 -4 -4 -4 -4 -4
-11 -11 -11 -11 -11 -11 -11 -10 -10 -10 -10 -10 -10 -10 -10 -10 -10 -10 -10 -10 -10 -10 -10 -9 -9 -9 -9 -9 -9 -9 -9 -9 -9 -9 -8 -8 -8 -8 -8 -8 -8 -8 -7 -7 -7 -7 -7 -7 -7 -7 -7 -7 -7 -7 -6 -6 -6 -6 -6 -6 -6 -6 -6 -5 -5 -6 -6 -6 -6 -6 -6 -6 -6 -6 -6 -6 -6 -6 -5 -5 -5 -5 -4 -4 -4 -4
-12 -11 -11 -11 -11 -11 -11 -11 -11 -11 -11 -11 -11 -11 -11 -11 -11 -10 -10 -10 -10 -10 -10 -10 -10 -10 -10 -9 -9 -9 -9 -9 -9 -9 -9 -9 -8 -8 -8 -8 -8 -8 -8 -8 -8 -8 -7 -7 -7 -7 -7 -7 -6 -6 -6 -6 -6 -6 -6 -6 -6 -6 -6 -6 -6 -6 -6 -6 -6 -6 -6 -6 -6 -6 -6 -7 -7 -6 -6 -6 -5 -5 -5 -4 -5 -5
-12 -12 -12 -12 -12 -12 -12 -11 -11 -11 -11 -11 -11 -11 -11 -11 -11 -11 -11 -10 -10 -10 -10 -10 -10 -10 -10 -10 -10 -10 -10 -10 -9 -9 -9 -9 -9 -9 -9 -8 -8 -8 -8 -8 -8 -8 -7 -7 -6 -6 -6 -6 -6 -6 -6 -6 -6 -6 -6 -6 -6 -6 -6 -6 -6 -6 -6 -6 -6 -6 -6 -6 -6 -6 -6 -7 -7 -7 -7 -6 -6 -5 -5 -5 -5 -5
-12 -12 -12 -12 -12 -12 -12 -12 -12 -12 -12 -12 -12 -11 -11 -11 -11 -11 -11 -11 -10 -10 -10 -11 -11 -11 -11 -11 -10 -10 -10 -10 -10 -10 -9 -9 -9 -9 -9 -9 -9 -8 -8 -8 -8 -8 -8 -8 -8 -7 -6 -6 -6 -6 -6 -6 -6 -6 -6 -6 -6 -7 -7 -7 -7 -7 -7 -7 -6 -6 -6 -6 -6 -6 -7 -7 -7 -7 -7 -7 -7 -6 -5 -5 -5 -5
Height
736 737 737 738 738 739 740 741 741 742 743 743 745 746 747 749 750 751 752 753 753 754 755 756 757 758 759 760 761 761 762 763 763 764 765 766 766 767 768 768 769 770 771 771 772 772 773 774 774 775 776 776 777 777 778 778 779 779 780 781 781 782 782 782 783 783 784 784 785 785 785 786 786 786 786 786 786 786 786 787 787 787 787 787 787 787
735 736 737 737 738 738 739 740 741 741 742 743 744 745 746 748 749 750 752 752 753 754 754 755 756 757 758 759 760 761 762 762 763 764 765 765 766 767 767 768 769 769 770 771 772 772 773 773 774 775 775 776 776 777 777 778 778 779 780 780 781 781 782 782 782 783 783 784 784 785 785 785 786 786 786 786 786 786 786 786 786 786 786 786 786 786
734 735 736 736 737 738 739 739 740 741 741 742 743 744 745 747 748 749 751 752 752 753 754 755 756 757 757 758 759 760 761 762 762 763 764 765 766 766 767 768 768 769 770 770 771 772 772 773 773 774 775 775 776 777 777 777 778 779 779 780 780 781 781 782 782 783 783 784 784 784 785 785 785 786 786 786 786 786 786 786 786 786 786 786 786 786
734 734 735 736 736 737 738 739 739 740 741 741 742 743 744 746 747 748 749 751 752 752 753 754 755 756 757 757 759 759 760 761 762 762 763 764 765 766 767 767 768 768 769 770 771 771 772 772 773 774 774 775 775 776 777 777 778 778 779 779 780 780 781 782 782 782 783 783 784 784 785 785 785 785 785 786 786 786 786 786 786 786 786 786 785 785
733 733 734 735 736 736 737 738 739 739 740 741 742 743 744 745 746 747 748 749 750 751 752 753 754 755 756 757 758 759 760 760 761 762 763 763 764 765 766 767 767 768 769 769 770 771 771 772 772 773 774 774 775 775 776 777 777 778 778 779 779 780 781 781 782 782 782 783 783 784 784 785 785 785 785 785 785 785 786 786 786 786 785 785 785 785
732 733 734 734 735 735 736 737 737 738 739 740 741 742 743 744 745 746 747 748 749 750 751 752 753 754 755 756 757 758 759 760 761 761 762 763 763 764 765 766 767 767 768 769 769 770 771 772 772 772 773 774 774 775 775 776 777 777 777 778 779 779 780 781 781 782 782 783 783 783 784 784 784 785 785 785 785 785 785 785 785 785 785 785 784 784
731 732 732 733 734 734 735 736 736 737 738 739 740 742 743 744 745 746 746 747 747 748 750 751 752 753 754 755 756 757 758 759 760 761 762 762 763 764 764 765 766 767 767 768 769 769 770 771 771 772 772 773 774 774 775 775 776 777 777 777 778 779 779 780 781 781 782 782 782 783 783 783 784 784 784 784 784 784 784 784 784 784 784 784 784 784
730 731 732 732 733 734 734 735 735 736 737 738 739 741 742 744 745 745 746 746 747 748 749 750 751 752 753 754 755 756 757 758 759 761 762 762 763 763 764 764 765 766 766 767 768 768 769 770 770 771 772 772 773 773 774 775 775 776 777 777 778 778 779 780 780 781 781 782 782 782 782 783 783 783 783 783 783 783 783 783 783 783 783 783 783 783
729 730 730 731 732 733 733 734 735 735 736 737 738 739 741 743 744 745 745 746 747 748 749 750 751 752 752 753 754 755 756 757 758 760 761 762 762 763 763 764 764 765 765 766 767 767 768 769 769 770 771 772 772 773 773 774 775 776 776 777 777 778 778 779 779 780 780 781 781 781 782 782 782 782 782 782 782 782 782 782 782 782 782 782 782 782
728 729 729 730 731 732 732 733 734 735 736 736 737 738 739 741 743 744 744 745 746 747 748 750 751 752 753 754 754 755 755 756 757 758 760 761 762 762 763 763 764 764 765 765 766 766 767 768 768 769 770 771 771 772 773 773 774 775 776 776 777 777 778 778 779 779 780 780 780 780 781 781 781 781 781 781 781 781 781 782 782 782 782 782 782 782
727 728 729 729 730 731 732 732 733 734 735 736 737 737 738 740 742 742 743 743 745 746 748 750 752 753 754 754 754 754 754 755 756 757 759 760 761 762 762 763 763 763 764 764 765 765 766 767 767 768 769 770 771 771 772 773 774 774 775 776 776 777 777 777 778 778 779 779 779 779 780 780 780 780 780 780 780 780 780 780 780 781 781 781 781 781
727 727 728 729 729 730 731 732 732 733 734 735 736 737 738 739 741 741 742 742 744 746 748 750 752 753 753 753 752 753 753 753 754 756 757 759 760 761 762 762 762 763 763 764 764 765 765 766 767 767 768 769 770 771 771 772 773 773 774 775 775 776 776 777 777 777 778 778 778 778 778 779 779 779 779 779 779 779 779 779 779 779 779 780 780 780
726 727 727 728 729 729 730 731 732 732 733 734 735 736 737 738 739 740 741 742 743 745 747 748 751 752 752 752 751 752 752 752 753 754 755 757 758 760 761 761 762 762 763 763 764 764 765 766 767 767 768 768 769 770 771 771 772 773 773 774 775 775 776 776 776 777 777 777 777 777 778 778 778 778 778 778 778 778 778 778 778 778 778 779 779 779
725 726 727 727 728 729 730 730 731 732 732 733 734 734 735 736 738 739 741 742 744 745 747 748 749 750 751 751 751 751 751 751 752 753 754 756 757 759 760 761 761 762 762 762 763 764 765 765 766 767 767 768 769 769 770 771 771 772 772 773 774 774 775 775 775 776 776 777 777 777 777 777 777 777 777 777 777 777 777 777 777 777 777 778 778 778
725 725 726 727 728 729 730 730 731 731 732 732 733 734 735 736 737 738 740 742 743 745 747 747 748 749 750 750 751 751 751 751 752 753 754 756 757 758 759 760 761 761 762 762 762 763 764 765 766 766 767 767 768 769 769 770 771 771 772 772 773 773 774 774 775 775 775 776 776 776 776 776 776 777 777 777 777 777 777 777 777 777 777 777 777 777
724 725 726 727 728 729 730 730 731 732 732 732 733 734 734 735 736 737 738 740 742 743 745 747 748 749 749 750 751 751 751 752 752 753 754 755 756 757 758 760 761 761 761 761 762 763 764 764 765 766 767 767 767 768 769 769 770 771 771 772 772 773 773 773 774 774 775 775 775 775 775 776 776 776 776 776 776 776 776 776 776 776 776 776 776 776
725 725 726 727 728 729 730 731 731 732 732 733 733 733 734 735 736 737 737 739 740 742 743 745 747 748 749 750 751 752 752 752 752 753 754 755 756 757 758 760 761 760 760 761 762 762 763 764 765 765 766 767 767 768 768 769 769 770 771 771 772 772 772 773 773 773 774 774 774 774 775 775 775 775 775 775 775 775 775 775 775 775 775 775 775 775
726 726 726 727 728 730 730 731 732 732 732 733 733 734 734 734 735 737 737 738 739 740 742 743 744 746 747 748 750 751 752 752 753 754 754 755 756 757 759 760 761 760 760 760 761 762 763 764 764 765 766 766 767 767 768 768 769 770 770 771 771 772 772 772 772 772 773 773 773 774 774 774 774 774 774 774 774 774 774 774 774 774 774 774 774 774
727 727 727 728 729 730 731 731 732 732 732 733 733 734 734 735 735 737 737 738 738 739 740 742 744 745 746 747 748 749 750 751 752 754 755 756 757 758 759 761 761 760 760 760 761 762 762 763 764 765 766 766 767 767 768 768 769 769 770 770 771 771 771 771 772 772 772 772 772 773 773 773 773 773 773 773 774 774 774 773 773 773 773 773 773 773
728 729 729 729 730 731 731 732 732 733 733 733 734 734 734 734 736 737 737 737 737 737 739 741 743 745 746 747 747 748 749 750 752 754 756 757 758 759 760 761 760 760 760 760 761 762 762 763 764 765 765 766 767 767 768 768 769 769 769 770 770 770 771 771 771 771 772 772 772 772 772 772 772 772 773 773 773 773 773 772 772 772 772 772 772 772
730 731 731 731 731 732 733 733 734 734 734 734 734 734 735 735 736 737 737 737 737 737 738 741 743 745 746 746 747 748 748 750 751 753 755 757 758 759 759 760 759 759 759 760 760 761 762 762 763 764 765 766 767 767 767 768 768 768 769 769 770 770 770 770 771 771 771 771 771 771 771 772 772 772 772 772 772 772 772 772 772 771 771 771 771 771
731 732 732 732 732 733 734 734 734 735 735 735 735 735 735 736 737 737 737 737 737 737 738 741 743 745 745 746 747 747 748 749 750 751 754 756 757 758 759 759 759 758 758 759 760 761 762 762 763 764 766 766 767 767 767 767 768 768 768 769 769 769 770 770 770 770 770 770 770 771 771 771 771 771 771 771 771 771 771 771 771 770 770 770 770 769
732 733 733 733 733 734 734 735 735 735 735 736 736 736 737 737 738 738 738 737 737 737 738 740 742 744 745 746 747 747 748 749 750 751 753 755 757 757 758 758 758 758 758 759 760 761 762 762 763 764 766 767 767 767 767 767 767 768 768 769 769 769 769 769 769 769 769 770 770 770 770 770 770 770 770 770 770 770 770 770 770 769 769 769 769 768
733 734 734 734 734 734 735 735 735 735 736 736 737 737 737 738 738 739 739 738 738 739 739 740 742 744 746 746 747 748 749 750 751 752 753 755 756 757 758 758 758 757 758 759 760 761 762 762 763 764 765 766 766 766 767 767 767 767 768 768 768 768 768 768 768 769 769 769 769 769 769 769 769 769 769 769 769 769 769 769 769 768 768 768 767 767
735 735 735 735 735 735 735 735 736 736 736 737 737 737 738 738 738 739 739 739 739 740 740 741 743 745 746 747 747 748 749 750 751 752 753 755 757 757 758 758 758 758 758 759 760 761 762 762 763 763 764 765 765 766 766 766 767 767 767 767 767 767 768 768 768 768 768 768 769 769 769 769 768 768 768 768 768 768 768 768 768 768 767 767 767 766
736 736 736 736 736 736 736 736 736 736 737 737 737 737 738 738 738 739 739 740 740 741 742 743 744 746 747 748 748 749 750 750 751 752 752 754 756 758 758 758 758 759 759 760 760 761 761 762 762 763 763 764 765 765 766 766 766 766 767 767 767 767 767 767 767 768 768 768 768 768 768 768 768 768 768 768 768 767 767 767 767 767 767 766 765 765
737 737 737 737 736 736 736 736 737 737 737 737 737 738 738 739 739 740 741 741 742 743 744 745 746 747 748 749 750 750 751 751 752 752 752 753 755 757 758 759 759 759 760 760 761 761 761 762 762 763 763 763 764 764 765 765 765 766 766 767 767 767 767 767 767 767 767 767 767 767 767 767 767 767 767 767 767 767 767 767 767 766 766 765 764 764
738 737 737 737 737 737 737 737 737 737 738 738 738 739 739 740 741 742 743 743 744 745 746 746 747 748 749 750 751 751 751 752 752 752 752 753 754 756 757 758 759 759 760 760 761 761 761 762 762 762 762 763 763 763 764 764 765 765 766 766 766 766 766 766 766 767 767 767 767 767 767 767 767 767 767 767 766 766 766 766 766 765 765 764 763 762
738 738 738 738 738 738 738 738 738 739 739 739 739 740 740 741 742 743 744 745 746 746 746 747 747 747 749 750 751 751 752 752 752 752 753 753 754 755 756 757 757 758 759 760 761 761 762 762 762 762 762 762 762 763 763 764 764 765 765 765 765 765 765 766 766 766 766 767 767 767 767 766 766 766 766 766 766 766 766 766 765 764 764 763 762 762
739 739 739 739 739 739 739 739 739 740 740 741 741 741 742 742 743 744 745 746 746 746 746 747 747 747 748 749 750 751 752 752 752 753 753 753 754 755 756 756 757 758 758 759 760 761 761 761 761 761 762 762 762 762 762 763 763 764 764 764 764 764 765 765 765 766 766 766 766 766 766 766 766 765 765 765 765 765 765 765 764 764 763 762 761 761
740 740 740 740 740 740 740 740 740 741 741 742 742 742 743 743 744 745 745 746 746 747 746 746 747 747 747 748 749 751 752 752 753 753 753 753 754 755 756 756 757 757 758 759 759 759 760 760 760 760 761 761 761 762 762 762 762 763 763 763 763 763 764 764 765 765 766 766 766 765 765 765 765 765 764 764 764 764 764 764 763 763 762 761 760 760
741 741 741 741 741 741 741 741 742 742 742 742 743 744 744 745 745 746 746 746 747 747 747 747 747 747 747 747 749 751 752 753 753 753 753 753 754 755 756 756 757 757 758 758 758 758 759 759 759 759 760 760 761 761 762 762 762 762 762 762 763 763 763 764 764 765 765 765 765 765 764 764 764 764 764 763 763 763 763 763 762 762 761 760 759 759
742 742 742 742 742 742 743 743 743 743 744 744 744 745 745 746 746 747 747 747 747 747 747 747 747 747 747 748 749 751 752 753 753 753 753 754 755 756 756 757 757 757 758 758 758 758 758 758 759 759 759 759 760 761 761 761 761 761 761 762 762 762 763 763 764 764 764 764 764 764 764 763 763 763 763 763 762 762 762 762 762 761 760 760 759 758
743 744 744 744 744 744 744 744 744 745 745 746 746 747 747 747 747 747 748 748 748 748 748 748 748 748 748 749 750 752 752 753 753 754 754 754 755 756 757 757 757 757 758 758 758 758 758 758 759 759 759 759 759 760 760 760 760 760 761 761 762 762 762 763 763 763 764 763 763 763 763 763 763 762 762 762 762 762 761 761 761 760 760 759 758 757
745 745 745 745 746 746 746 746 746 746 747 747 747 748 748 748 748 748 749 749 749 749 749 749 749 749 750 750 751 752 753 753 753 754 754 755 755 756 757 757 757 758 758 758 758 758 758 758 758 759 759 758 759 759 760 760 760 760 760 761 761 762 762 762 763 763 763 763 763 762 762 762 762 762 762 761 761 761 760 760 760 759 759 758 758 757
746 746 747 747 747 747 747 747 747 748 748 748 749 749 749 749 749 749 749 749 749 749 749 750 750 750 751 751 751 752 753 753 753 754 754 755 755 756 757 757 757 758 758 758 758 758 758 758 758 759 759 759 758 758 758 759 759 759 760 760 761 762 762 762 762 762 762 762 762 762 762 762 761 761 761 761 760 760 760 759 759 758 758 757 757 757
747 748 748 748 748 748 748 749 749 749 749 750 750 750 750 750 750 750 750 750 750 750 750 750 750 751 751 752 752 752 753 753 753 754 754 754 755 756 757 757 757 757 758 758 758 758 758 758 758 758 758 759 758 758 758 758 758 759 760 760 761 762 762 762 762 762 762 762 762 761 761 761 761 760 760 760 760 759 759 758 758 757 757 757 757 756
749 750 750 750 749 749 750 750 750 750 751 751 751 751 751 751 751 751 751 751 751 751 751 751 751 751 752 752 752 752 753 753 753 754 754 754 755 755 756 757 757 757 757 757 757 757 757 758 758 758 757 758 758 758 758 758 758 759 759 760 761 761 762 762 762 762 762 761 761 761 761 761 760 760 759 759 758 758 758 757 757 757 756 756 756 755
751 751 751 751 751 750 750 751 751 751 752 752 752 752 752 752 752 751 751 751 751 752 752 752 752 752 752 752 752 753 753 753 754 754 754 754 755 755 756 756 756 757 757 757 757 757 757 757 757 757 757 757 757 757 758 758 759 759 759 760 760 761 761 762 762 761 761 761 760 760 760 760 759 759 758 758 758 757 757 757 756 756 756 755 755 754
752 752 752 752 751 751 751 751 752 752 752 752 752 752 752 752 752 752 752 752 752 752 752 752 752 752 752 753 753 753 753 754 754 754 754 755 755 755 756 756 756 756 756 756 756 756 756 756 757 757 757 757 757 757 758 758 759 759 760 760 760 760 761 761 761 761 760 760 760 759 759 759 758 758 758 757 757 757 756 756 756 755 755 755 754 753
752 752 752 752 752 752 752 752 752 752 752 752 752 752 752 752 752 752 752 752 752 752 752 752 753 753 753 753 753 753 754 754 754 754 755 755 755 755 755 755 755 755 755 756 756 756 756 756 756 757 757 757 757 758 758 759 759 760 760 760 760 760 760 760 760 760 760 759 759 759 758 758 757 757 757 757 756 756 756 756 755 755 755 754 754 753
753 753 753 753 752 752 752 752 752 752 753 752 752 752 752 752 752 752 752 752 752 752 753 753 753 753 753 753 753 754 754 754 754 755 755 755 755 755 755 755 755 755 755 755 755 755 755 756 756 756 757 757 757 758 758 758 759 760 760 760 759 759 759 759 759 759 759 759 758 758 758 757 757 756 756 756 756 755 755 755 755 755 754 754 753 753
754 754 754 753 753 753 752 752 752 752 752 752 752 752 752 752 752 753 752 752 753 753 753 753 753 753 753 753 754 754 754 754 754 755 755 755 755 755 755 754 754 754 754 754 755 755 755 756 756 757 757 757 757 758 758 758 758 759 759 759 759 759 758 757 757 758 758 758 758 757 757 757 756 755 755 755 755 754 754 754 754 754 754 753 753 752
755 755 755 754 754 753 753 752 752 753 753 753 753 753 753 753 753 753 753 753 753 753 753 753 753 753 753 753 754 754 754 754 754 754 754 755 754 754 754 754 754 754 754 754 754 755 755 756 756 756 757 757 757 757 757 757 757 758 758 758 759 759 758 757 757 757 757 757 757 757 756 755 755 754 754 753 753 753 753 753 753 752 752 752 752 751
756 755 755 754 754 753 753 753 753 753 753 753 753 753 753 753 753 753 753 753 753 753 753 753 753 753 753 754 754 754 754 754 754 754 754 754 754 754 754 754 754 754 754 754 754 755 755 755 755 756 756 756 757 757 757 757 757 757 757 757 757 757 757 757 757 757 756 756 756 756 755 755 754 753 753 752 752 752 752 752 751 751 751 750 750 750
756 756 755 755 754 754 754 754 754 754 753 754 754 754 754 754 754 754 754 754 753 753 753 753 753 753 754 754 754 754 754 754 754 754 754 754 754 753 753 753 753 753 754 754 754 754 755 755 755 755 755 755 755 756 756 756 756 756 756 756 757 757 756 756 756 756 756 755 755 755 754 754 753 752 752 751 750 750 750 750 750 750 749 749 749 748
756 756 756 755 755 754 754 754 754 754 754 754 754 754 754 754 754 754 754 754 754 754 754 754 754 754 754 754 754 754 754 754 754 753 753 753 753 753 753 753 753 753 753 754 754 754 754 754 754 754 754 754 754 754 755 755 756 756 756 756 756 756 755 755 755 755 755 755 754 754 753 753 752 752 751 750 749 749 749 749 749 749 748 748 747 747
756 756 756 755 755 755 755 754 754 754 754 754 755 755 755 755 755 755 754 754 754 754 754 754 754 754 754 754 754 754 754 754 754 754 753 753 753 753 753 753 753 753 753 753 753 753 753 753 753 753 753 753 754 754 754 755 755 755 755 755 755 755 755 755 755 755 755 754 754 753 753 752 752 751 750 749 748 747 747 747 747 747 747 747 747 746
757 756 756 756 755 755 755 755 755 755 755 755 755 755 755 755 755 755 755 755 754 754 754 754 754 754 755 755 755 755 755 754 754 754 754 754 753 753 753 753 753 752 752 752 752 752 752 752 752 752 752 753 753 753 754 754 754 755 755 755 755 754 754 754 754 754 754 754 753 753 753 752 752 752 751 749 748 747 746 746 745 746 746 746 745 745
757 756 756 756 755 755 755 755 755 755 755 755 755 755 755 755 755 755 755 755 755 755 754 754 754 755 755 755 755 755 755 755 754 754 754 754 754 754 753 753 753 752 752 752 752 752 751 751 751 752 752 752 753 753 753 754 754 754 754 754 754 754 754 754 754 753 753 753 753 752 752 752 752 751 751 750 748 747 745 744 744 744 744 744 744 743
757 757 756 756 756 756 755 755 755 755 755 755 755 755 755 755 755 755 755 755 755 755 755 755 755 755 755 755 755 755 755 755 755 755 755 755 754 754 754 754 753 753 753 752 752 752 752 751 751 751 752 752 753 753 753 753 754 754 754 754 754 754 754 753 753 753 753 752 752 752 752 751 751 751 750 749 748 747 745 744 743 742 742 742 742 741
Wind_Speed
9 8 7 7 6 5 3 3 4 7 13 18 23 26 28 27 25 24 22 22 21 19 18 17 18 18 18 17 16 16 15 16 16 15 15 14 14 13 12 12 11 10 10 9 9 9 9 9 9 8 8 7 6 6 5 5 5 5 7 8 8 9 9 8 8 7 7 7 6 6 6 6 6 6 6 6 7 7 7 7 7 7 7 7 7 7
12 10 9 9 8 6 5 5 5 6 10 16 22 27 29 28 27 25 23 22 21 20 19 18 18 19 19 19 18 17 17 17 17 16 15 15 14 13 12 12 11 10 10 9 9 9 9 9 9 8 7 6 6 5 4 4 4 6 7 8 9 9 8 8 7 7 7 7 6 6 6 6 6 7 7 7 7 8 8 8 8 8 8 8 8 8
13 13 12 11 10 8 7 7 7 7 9 13 20 26 29 29 28 26 24 23 22 20 19 19 19 20 20 20 19 19 18 18 18 17 16 15 14 14 13 12 11 11 10 10 9 9 9 9 9 8 7 6 5 4 4 3 4 6 8 9 9 8 7 7 6 6 6 6 6 6 6 6 6 7 7 8 8 8 8 8 8 8 8 8 8 9
14 14 14 13 12 11 10 9 8 8 9 12 19 26 30 30 29 27 25 24 23 22 21 20 20 20 21 21 21 20 20 19 19 18 17 16 15 15 14 13 12 11 10 10 10 10 10 9 9 8 7 6 6 5 5 4 5 7 8 9 8 7 6 5 5 5 4 4 4 4 4 5 5 6 7 7 8 8 8 8 8 8 8 8 9 9
15 15 15 14 13 12 11 10 9 9 9 13 19 26 30 31 30 28 27 26 25 24 23 22 22 21 22 22 22 21 21 20 20 19 18 17 16 15 15 14 13 12 11 10 10 10 10 9 9 8 8 7 7 6 6 6 7 8 9 9 8 7 6 5 4 3 3 3 3 3 3 4 4 5 5 6 6 6 6 7 7 7 8 8 8 9
15 16 16 15 14 13 12 11 11 11 11 14 18 23 27 27 27 27 27 27 27 27 26 25 25 24 23 23 23 23 22 21 21 20 19 18 17 17 16 15 14 13 12 11 11 11 11 10 10 9 9 8 8 8 8 8 8 9 10 10 9 7 6 5 4 3 2 1 1 2 2 3 3 3 3 4 4 4 5 5 6 6 7 8 8 9
16 16 16 15 14 13 12 12 12 12 13 15 17 19 21 22 22 21 23 25 26 27 27 27 27 26 26 25 25 24 24 23 22 21 20 19 18 18 17 16 15 14 13 12 12 12 12 12 11 11 10 10 9 9 9 9 10 10 10 10 9 8 7 6 4 3 1 0 1 2 2 2 2 2 2 2 2 3 4 5 6 6 7 8 9 10
15 16 16 14 12 11 11 11 12 13 14 15 16 16 17 18 17 17 19 20 21 21 22 25 27 28 28 27 27 27 26 25 23 22 21 20 19 18 18 17 16 15 14 14 14 14 14 13 13 12 12 11 11 10 10 10 10 10 11 10 9 8 7 6 5 4 2 2 3 4 4 4 3 3 3 3 3 4 5 5 6 7 8 9 9 10
15 14 15 13 11 9 9 9 11 13 14 15 16 16 16 16 16 16 16 16 16 16 16 19 21 23 24 24 25 27 27 26 25 23 22 21 20 19 19 18 18 17 16 15 15 15 15 14 14 13 12 12 11 11 10 10 10 10 10 10 9 9 8 7 6 4 4 4 5 5 5 5 5 5 5 5 5 6 7 7 8 8 9 9 10 10
14 13 13 13 12 11 9 8 11 14 14 15 15 16 16 16 16 16 15 14 14 15 15 15 15 16 17 18 20 22 23 25 25 24 23 21 20 20 19 19 19 18 18 17 17 16 16 15 14 14 13 12 12 11 11 10 10 10 10 10 10 9 8 7 6 5 5 6 6 7 7 7 7 7 7 7 7 8 8 9 9 9 9 9 10 10
11 11 11 10 11 12 11 10 11 14 14 14 14 15 16 16 16 16 15 14 14 15 16 15 14 13 14 14 15 17 19 21 23 24 23 21 20 20 20 19 19 19 18 18 18 17 17 16 15 14 13 13 12 12 11 11 11 11 11 11 10 10 9 8 7 7 7 7 7 7 7 7 7 8 8 8 8 8 8 9 9 9 9 9 9 9
8 9 9 8 8 9 10 10 11 13 13 12 12 12 14 15 15 15 15 15 15 15 16 16 15 14 13 14 14 16 17 19 22 23 23 21 20 19 19 19 19 18 18 17 17 17 17 16 15 15 14 14 13 12 12 12 12 12 12 12 11 10 9 9 8 7 7 7 7 7 7 7 7 8 8 8 8 8 8 8 8 8 8 8 8 9
9 8 8 7 7 7 8 8 9 10 11 11 11 12 14 16 16 15 14 14 14 15 16 16 15 15 14 14 15 16 17 19 22 23 23 22 20 19 18 18 18 17 17 16 16 15 15 15 14 14 14 14 13 13 13 13 12 12 12 12 11 10 10 9 8 7 6 6 6 6 6 6 7 7 8 8 8 8 8 8 8 8 8 8 8 8
8 8 8 6 5 5 6 7 7 7 8 10 11 13 16 18 18 17 15 14 13 14 15 15 15 14 13 13 13 15 17 19 21 22 22 21 20 19 18 18 17 17 17 16 15 14 14 13 13 13 13 13 13 13 12 12 12 11 11 11 10 9 8 7 6 5 5 5 5 5 6 6 7 7 7 8 8 8 8 8 8 8 8 8 8 8
8 8 7 6 5 5 5 6 6 6 7 9 11 13 14 16 17 17 17 16 15 15 15 15 14 14 12 11 12 13 16 18 19 19 18 18 18 18 18 17 17 17 16 16 15 14 13 13 12 11 11 11 11 11 11 10 10 9 9 8 7 7 6 5 5 5 5 5 5 5 6 6 6 6 7 7 8 8 8 8 9 8 8 8 8 9
8 9 8 7 6 6 6 6 6 5 6 8 10 10 11 12 14 16 18 17 16 16 15 13 11 10 10 11 12 12 13 14 16 17 16 15 15 16 16 15 15 16 15 15 15 14 13 12 11 10 10 9 9 8 8 8 7 7 6 6 5 5 4 4 4 4 4 5 5 5 5 6 6 6 6 7 7 8 8 8 8 9 9 9 9 9
6 7 8 8 7 7 7 7 7 6 6 6 8 9 10 11 13 15 17 17 16 15 14 12 8 5 5 9 11 12 12 12 13 14 14 13 13 14 13 12 13 15 14 14 13 13 12 11 10 9 9 8 7 7 6 6 6 6 5 5 4 4 4 5 5 4 4 4 4 5 5 5 6 6 6 7 7 7 8 8 9 9 9 10 10 10
6 6 7 7 7 7 8 8 7 6 6 5 6 7 9 10 12 13 15 15 15 13 13 12 9 6 5 5 7 11 14 13 12 12 12 11 11 11 11 10 11 13 13 13 13 12 12 11 10 9 9 8 7 7 6 6 6 5 5 5 4 4 4 4 4 4 4 4 4 5 5 5 5 6 6 6 7 7 8 8 9 9 10 10 11 11
9 9 8 8 8 9 10 9 8 7 6 5 4 5 7 8 10 11 13 14 14 14 12 9 8 8 7 7 8 11 14 14 13 13 12 11 10 10 9 9 9 11 13 14 14 13 13 12 12 11 10 8 8 7 6 5 5 5 5 5 5 5 4 4 3 3 3 4 5 5 5 5 5 6 6 7 7 8 9 9 10 10 11 11 11 12
12 12 10 9 9 10 11 11 11 10 8 6 6 6 7 7 8 9 10 12 13 14 13 10 7 5 7 9 10 11 13 14 15 14 13 12 11 11 10 10 11 13 14 15 15 15 14 14 14 12 10 8 7 6 6 6 6 5 5 5 4 4 3 3 3 3 4 5 5 5 5 5 6 6 7 7 8 9 10 10 11 11 12 12 13 13
14 14 14 12 11 11 10 11 11 11 10 9 9 9 9 8 8 8 8 10 11 12 12 10 7 7 8 10 10 9 11 13 14 13 11 11 11 11 11 11 13 15 16 17 16 15 14 14 12 11 9 8 7 7 7 7 6 6 5 4 3 3 3 3 3 4 4 5 4 4 5 5 6 7 8 9 10 10 11 12 12 12 13 13 14 14
15 14 15 15 14 12 10 10 11 11 11 11 12 12 11 11 10 9 9 10 11 12 12 12 10 10 10 10 9 9 10 11 12 11 7 7 8 9 10 12 13 15 17 17 16 14 13 13 12 10 9 8 7 7 7 7 6 5 4 3 3 3 3 3 4 4 4 4 4 5 5 6 7 8 9 10 11 12 12 13 13 13 14 14 15 15
16 15 14 14 13 12 11 11 10 10 10 11 12 12 12 12 11 11 11 12 14 15 15 15 14 12 10 10 9 9 8 8 10 9 6 4 4 6 10 11 13 14 16 16 15 14 13 13 13 12 11 9 7 7 7 6 5 4 3 3 3 3 3 3 4 4 4 4 4 5 6 7 8 9 10 11 12 13 13 14 14 14 14 15 16 16
16 15 14 13 12 12 11 11 10 10 10 10 10 10 10 10 10 10 11 12 13 14 15 15 14 12 10 9 9 8 7 7 7 7 5 3 3 4 8 11 12 13 14 14 14 14 14 14 14 14 13 10 8 7 6 5 5 4 3 3 3 3 3 3 3 3 4 4 5 6 7 8 9 10 11 12 13 13 14 14 14 15 15 15 16 17
15 15 14 14 13 13 14 13 12 11 10 9 9 8 8 7 7 7 7 8 9 10 12 13 12 11 10 9 9 8 7 6 7 7 5 4 3 4 7 9 10 11 12 13 13 14 14 15 14 14 13 11 9 7 5 5 4 4 3 3 3 2 2 2 3 4 4 5 6 7 8 9 10 11 12 12 13 13 14 14 14 14 14 15 16 17
15 15 16 16 16 17 17 15 14 12 10 9 8 7 7 6 5 5 6 7 7 7 9 10 9 7 8 8 9 9 8 6 7 7 7 6 5 5 7 8 9 9 11 13 13 13 14 15 14 13 12 11 9 7 5 4 3 3 3 2 1 2 2 3 4 5 6 7 8 9 9 10 11 12 12 13 13 13 13 13 13 13 13 14 16 17
15 16 16 17 17 17 16 16 14 12 10 8 7 6 5 4 4 5 6 7 6 6 7 7 5 5 6 6 7 8 8 7 7 7 8 8 8 7 7 8 8 9 10 12 12 13 13 14 13 12 12 11 9 7 6 4 3 2 2 1 2 3 4 5 5 7 7 8 9 10 10 11 12 12 12 12 12 12 12 12 11 11 12 13 15 15
13 13 13 13 13 13 14 14 13 11 10 8 7 5 4 3 4 6 6 6 5 6 8 7 5 3 3 4 5 7 8 7 6 6 7 8 7 7 8 8 7 7 9 10 10 11 11 12 12 12 11 10 9 7 5 4 3 2 2 2 3 4 5 6 7 8 9 9 10 11 11 11 11 11 11 11 11 11 10 10 10 10 11 13 13 14
9 9 9 9 10 10 10 11 12 11 10 9 8 6 5 5 6 7 6 5 5 6 7 8 7 5 5 6 7 8 8 7 6 5 5 5 5 5 7 6 6 6 7 7 7 7 7 8 9 10 9 8 7 5 4 3 3 3 3 3 4 5 6 7 8 9 10 10 11 11 11 11 11 10 10 10 9 9 9 9 9 10 11 12 13 13
8 8 9 9 9 9 9 10 11 11 11 10 9 8 7 7 8 8 7 6 6 6 7 8 8 8 8 8 6 5 5 6 5 4 3 3 4 4 5 5 4 5 6 6 5 4 4 6 8 8 7 6 5 4 3 2 3 3 4 5 7 8 8 9 9 10 11 11 11 11 10 10 9 9 9 9 8 8 8 9 9 11 12 12 13 13
11 12 12 12 12 12 12 12 12 12 12 11 11 11 11 10 10 9 8 8 7 7 8 8 8 9 9 6 3 1 2 5 5 3 2 3 3 4 5 4 4 4 5 5 4 2 1 3 6 7 7 5 4 3 2 3 4 5 7 8 9 10 10 10 11 11 11 11 10 10 9 9 8 8 8 8 8 8 8 9 10 11 12 13 13 13
16 16 16 16 16 16 15 15 14 13 13 12 13 13 13 12 11 10 9 9 8 8 8 8 8 8 7 6 4 2 2 4 5 3 2 3 4 5 4 4 3 3 4 3 2 2 1 1 1 5 5 4 3 3 4 5 6 8 9 9 10 11 12 11 11 11 10 10 9 9 8 8 8 8 8 8 8 8 8 9 10 11 12 12 12 12
18 18 17 17 17 17 16 16 15 14 13 13 13 13 12 12 11 10 10 9 9 9 9 9 9 9 9 9 8 6 5 6 5 4 2 3 4 4 3 2 2 2 1 2 1 0 1 2 2 1 2 3 4 5 6 7 8 9 10 10 11 11 11 11 10 9 9 8 8 8 8 8 8 8 9 9 9 9 9 9 10 10 11 11 12 12
18 17 17 17 17 17 16 15 15 14 14 14 14 13 12 12 11 10 9 9 8 9 9 10 10 10 11 10 10 9 8 6 5 3 2 3 3 3 2 2 2 1 1 1 2 2 2 2 3 4 5 7 8 8 8 8 9 10 10 10 10 10 11 10 9 8 8 7 7 8 8 9 9 10 10 10 10 9 9 9 9 9 9 10 11 12
16 17 17 17 17 16 16 16 15 15 15 15 14 13 12 12 11 10 10 9 8 8 8 8 9 9 10 11 10 9 8 6 4 3 2 2 3 3 2 2 2 2 2 2 2 2 2 3 4 5 6 8 9 9 7 7 8 9 10 10 10 9 9 9 8 7 7 8 8 9 9 10 11 11 12 11 10 9 9 8 8 7 7 8 9 10
17 17 16 16 16 16 16 16 16 15 15 14 13 12 11 11 10 10 10 9 9 8 8 7 7 7 7 8 9 8 7 5 3 2 1 1 2 2 2 1 1 1 2 2 2 2 2 3 4 5 6 6 6 6 6 7 8 8 9 10 9 8 8 7 6 7 7 8 9 10 11 12 13 13 12 11 10 8 8 7 7 6 6 6 6 7
16 17 16 16 16 15 15 15 15 14 14 13 12 11 10 10 9 9 9 9 8 8 8 8 7 7 6 6 6 6 5 4 2 1 1 1 1 1 1 1 0 1 1 1 1 1 1 2 3 4 4 4 3 4 6 8 10 11 11 11 10 8 7 5 5 6 7 9 10 11 13 14 14 13 12 10 9 8 7 6 6 6 6 6 6 6
15 15 15 15 15 14 14 14 13 13 12 11 11 10 9 9 9 8 8 8 8 8 8 8 8 7 7 6 5 5 4 3 2 1 1 1 1 1 0 1 1 1 1 1 0 1 1 2 2 2 2 3 4 6 8 10 11 12 12 11 10 8 6 5 5 6 8 10 11 13 14 14 14 13 11 9 8 8 8 8 7 7 8 8 7 7
14 14 14 14 14 13 13 13 12 11 10 9 9 8 8 8 8 8 7 7 7 7 7 7 7 7 7 6 6 5 5 4 3 3 2 1 1 1 0 1 2 2 2 2 2 2 2 2 2 2 2 3 5 7 8 9 9 10 11 11 10 8 5 5 6 8 9 11 13 14 15 15 13 12 10 10 10 10 10 10 10 10 10 10 10 10
13 13 13 12 12 12 12 11 10 9 8 7 7 7 7 8 8 8 7 7 7 7 7 6 6 6 6 6 6 6 5 5 4 4 3 3 2 2 1 1 1 2 3 3 3 2 2 3 3 4 4 5 6 7 8 8 8 9 10 9 8 7 6 7 8 10 11 13 14 15 16 15 13 12 11 11 11 11 11 11 11 11 11 11 12 13
13 13 13 12 11 11 10 9 8 7 6 6 6 7 8 8 8 8 7 7 7 7 7 6 6 6 6 6 7 7 6 6 5 5 5 4 3 3 2 1 1 1 2 3 3 3 3 3 3 4 5 6 7 8 8 8 8 7 7 8 8 9 10 10 10 11 12 13 14 15 15 14 13 12 12 11 11 11 11 11 11 11 11 12 12 14
12 13 12 11 11 10 9 8 7 7 6 7 8 9 9 9 9 8 8 8 8 8 7 7 7 6 7 7 7 7 7 7 6 6 5 5 4 4 3 2 2 1 1 2 2 2 3 3 3 3 4 5 6 7 8 8 8 7 7 8 10 12 12 11 10 11 13 15 15 15 13 13 13 13 13 13 13 13 13 12 12 12 12 13 14 15
12 11 10 10 9 9 8 8 8 8 8 8 9 10 10 9 9 8 9 9 10 10 9 8 7 6 7 7 7 7 7 6 6 6 5 5 4 4 3 3 2 2 1 1 1 2 3 4 4 4 4 5 6 7 9 9 10 10 10 10 12 12 11 11 13 15 16 16 15 13 12 12 12 13 14 14 14 14 14 14 14 14 15 15 16 17
10 9 8 8 8 8 8 9 9 9 9 10 11 10 10 9 9 8 9 9 9 9 9 8 7 7 7 8 7 6 6 5 5 5 5 5 4 4 3 3 3 3 2 2 2 3 3 4 4 5 5 6 7 9 10 11 12 12 12 12 12 12 12 14 16 17 16 14 12 11 10 11 13 14 15 16 16 16 17 17 17 17 17 18 18 18
8 8 8 8 8 8 10 10 10 9 9 10 10 10 9 9 8 8 9 9 9 9 9 8 8 8 10 10 9 7 5 5 4 4 4 4 4 4 3 3 3 3 3 3 3 4 4 5 5 6 7 7 8 9 10 11 12 12 13 13 13 13 14 14 14 13 12 11 10 10 10 12 14 15 17 18 19 19 19 19 20 20 20 20 20 20
9 8 8 8 8 9 9 9 9 9 9 9 9 9 8 8 8 8 9 9 9 9 8 8 8 10 10 10 9 9 8 7 5 4 4 4 4 3 3 3 4 4 4 4 4 5 5 6 6 7 8 9 9 10 10 11 11 12 12 12 12 11 11 11 10 9 8 9 10 11 12 13 15 17 19 20 21 21 22 21 21 21 21 21 20 20
9 9 9 8 8 8 8 8 8 8 9 9 8 8 8 8 8 8 8 8 8 8 8 7 8 9 9 9 9 10 10 10 9 8 6 5 4 4 4 4 4 4 4 5 5 6 6 6 7 7 8 8 9 9 10 10 10 10 10 10 10 9 9 8 7 7 7 8 10 12 13 15 17 19 20 21 22 23 23 22 22 21 21 20 20 19
9 9 9 8 8 8 8 7 7 7 8 8 7 7 7 8 8 9 9 9 8 8 8 8 8 8 8 7 8 8 9 9 10 10 9 7 6 6 6 6 6 5 5 6 6 7 7 7 7 8 8 8 8 9 9 9 8 8 8 8 8 8 8 7 7 7 8 9 11 13 14 16 18 19 21 22 22 23 23 23 23 22 21 20 19 19
9 9 8 8 8 8 8 8 7 7 7 6 6 6 6 7 7 8 9 9 8 8 8 9 9 8 7 7 6 6 7 7 8 8 8 9 8 8 8 9 9 8 8 8 8 8 8 7 7 7 8 8 8 8 8 7 6 6 6 6 7 7 8 8 8 9 10 11 13 14 15 17 18 19 20 21 21 22 23 23 23 23 21 19 18 18
9 8 8 8 8 8 8 8 8 8 7 7 7 6 6 7 7 7 7 7 7 7 8 8 8 8 7 7 6 6 6 7 7 7 7 8 8 9 10 10 11 11 12 12 12 12 11 10 7 5 5 5 5 5 5 5 5 5 6 6 6 7 8 9 10 11 12 13 14 16 17 18 19 20 20 19 19 20 21 22 22 22 21 20 19 19
8 8 8 8 8 8 8 8 8 8 8 8 7 7 7 7 7 7 7 7 7 7 7 7 7 7 7 7 7 6 6 6 7 7 6 6 7 8 8 9 10 11 12 13 13 14 15 13 10 6 2 1 1 2 4 5 6 6 7 7 8 8 9 10 11 13 14 15 17 18 19 20 20 20 18 17 17 18 19 20 21 22 22 21 21 21
Wind_Direction
212 203 198 200 202 204 214 231 235 226 217 209 203 197 194 194 195 196 196 196 196 195 194 193 192 189 188 187 186 183 179 174 169 166 163 162 161 160 158 157 155 153 151 149 147 146 145 145 145 145 144 144 143 143 140 133 127 127 129 132 130 125 117 109 101 93 86 79 73 66 59 52 44 37 30 24 20 15 13 9 9 8 6 2 358 353
227 223 219 218 217 218 225 241 250 243 226 214 205 198 194 193 194 195 195 197 197 196 194 193 192 191 189 188 187 184 180 176 172 169 168 167 167 166 166 165 164 162 160 157 155 153 152 151 150 149 148 148 149 149 146 135 127 126 131 132 128 122 115 107 98 91 83 77 69 61 53 45 37 30 23 18 14 11 9 8 9 9 8 3 358 353
233 233 230 229 227 226 228 238 251 256 245 224 209 200 195 193 194 195 196 196 196 196 195 194 193 192 191 190 188 186 182 179 176 175 174 173 173 173 172 171 171 169 167 165 163 162 161 160 159 158 159 161 163 167 166 153 139 136 137 136 132 125 117 109 101 94 85 78 69 60 50 41 32 25 19 15 11 10 8 9 10 9 7 2 357 352
232 233 232 233 233 232 232 236 246 256 255 234 214 202 196 194 194 196 197 196 195 194 194 193 193 193 193 192 190 187 185 183 181 180 179 179 178 178 177 177 177 176 174 171 170 169 169 168 168 169 171 175 181 185 186 177 161 152 149 146 143 138 131 123 114 106 95 85 73 61 49 39 31 24 18 14 12 11 10 12 11 9 5 359 354 350
229 230 231 233 232 231 233 236 240 245 244 230 214 204 197 195 194 195 195 195 193 192 191 192 192 193 193 192 191 189 187 186 185 185 184 183 182 182 182 182 182 182 180 178 176 175 175 174 174 177 180 185 190 194 195 188 177 167 164 162 161 159 155 150 142 132 117 98 78 60 45 35 28 23 19 16 14 11 10 11 10 6 360 353 349 347
226 227 228 230 229 227 230 231 233 231 224 217 210 205 201 198 196 194 193 191 190 189 189 190 191 192 193 193 191 189 188 189 189 188 187 186 185 185 186 187 187 187 186 184 181 179 178 177 179 181 184 188 191 195 196 194 187 181 178 178 178 178 179 178 174 167 150 115 65 39 26 20 16 14 14 12 9 3 359 358 358 355 350 345 345 346
222 223 224 224 224 223 221 222 223 219 208 202 201 203 203 201 199 196 194 191 189 189 189 190 190 191 192 192 191 190 189 190 191 191 190 188 188 188 190 191 192 191 190 188 185 183 183 183 184 186 187 189 192 196 199 199 196 193 190 190 191 193 195 198 199 199 204 274 336 340 341 339 340 339 339 339 336 333 334 340 341 339 338 340 343 347
218 219 220 219 218 213 207 206 209 208 201 194 191 193 197 200 200 199 196 193 191 191 192 192 192 192 193 193 192 191 190 191 192 193 191 189 188 190 192 195 195 194 193 191 190 189 189 190 191 192 193 195 198 202 205 207 205 203 201 200 201 204 208 212 215 224 247 287 307 312 313 310 305 298 290 286 289 297 308 320 325 326 330 335 340 344
215 215 216 216 212 203 191 188 190 193 193 189 186 185 187 192 196 197 195 193 193 195 197 199 199 199 198 198 197 196 194 194 195 195 194 191 189 190 193 195 196 195 194 194 194 195 195 196 197 198 199 201 205 209 213 214 213 211 210 209 211 214 218 222 228 240 264 285 297 301 301 299 294 288 282 279 281 288 296 305 312 318 324 330 334 339
214 212 211 212 210 205 193 183 180 182 183 183 182 181 181 185 190 192 191 193 196 200 204 209 212 213 211 208 205 202 199 197 197 198 197 196 194 193 194 195 195 194 194 195 196 198 199 200 201 202 204 207 210 214 217 218 217 217 216 217 218 221 224 228 236 250 268 282 290 292 293 292 290 286 283 281 283 288 294 300 307 313 318 323 328 333
208 206 203 204 205 205 202 193 186 183 182 180 178 176 176 180 183 185 185 187 193 200 206 211 215 216 213 208 205 202 200 198 198 198 198 197 197 197 197 196 195 193 193 194 196 198 201 203 205 206 208 211 213 216 217 218 218 218 219 220 222 224 227 233 243 256 270 280 286 288 289 288 287 285 282 282 284 287 292 297 303 308 313 319 326 332
191 193 193 193 194 196 197 194 191 189 188 184 180 178 178 181 182 182 179 179 182 189 196 202 206 206 202 197 193 193 194 194 194 193 194 193 193 194 194 193 192 190 189 188 190 194 198 202 205 208 210 212 214 215 214 214 215 217 218 220 222 225 230 238 249 261 273 282 286 288 288 287 285 281 279 279 280 284 288 292 297 304 310 318 327 334
178 178 177 174 175 178 180 178 182 187 190 187 184 184 187 191 192 190 184 181 181 184 187 190 194 198 196 190 184 181 182 184 186 187 187 186 186 185 185 187 186 184 184 182 183 185 189 193 197 201 204 206 207 208 208 208 210 213 215 218 222 227 233 243 254 266 277 284 287 288 288 285 281 278 276 276 278 281 285 290 295 301 309 319 327 331
165 165 159 148 144 148 154 158 165 173 180 185 188 191 196 199 201 201 201 202 202 200 197 194 193 193 194 190 184 177 173 173 175 178 179 179 178 178 179 181 182 182 182 180 179 180 183 185 187 190 194 197 198 199 201 203 207 211 215 219 224 230 237 246 256 267 275 280 282 283 281 280 278 277 277 277 279 282 286 291 296 301 308 316 322 324
156 151 139 121 109 109 119 134 142 152 172 185 190 193 196 198 200 200 201 207 211 210 204 196 190 187 187 191 190 181 173 170 172 173 170 171 172 172 172 175 177 179 179 178 178 178 180 182 183 185 188 193 196 197 200 203 207 212 216 220 224 229 235 243 252 260 266 270 272 274 275 276 277 279 280 282 284 287 290 294 297 302 306 309 314 315
154 149 139 127 112 104 106 116 119 127 151 175 183 185 183 185 190 193 194 196 198 197 191 183 177 175 180 191 195 190 177 168 165 164 162 162 163 163 164 167 171 174 175 175 174 174 176 178 179 182 187 191 195 198 201 203 204 206 208 211 217 224 232 240 248 253 256 260 263 267 271 275 278 281 283 285 288 291 293 296 299 301 303 304 306 309
127 133 135 128 117 109 112 115 118 124 134 148 163 170 173 175 181 187 189 189 186 182 181 179 174 166 167 175 184 189 185 172 163 159 157 154 155 156 157 164 168 169 169 169 168 167 168 171 173 176 179 180 184 188 190 188 186 187 193 203 213 222 230 237 242 245 247 253 260 266 271 276 279 282 284 287 290 292 294 296 298 299 300 300 301 302
64 80 99 106 104 101 102 99 104 116 132 133 146 164 173 176 180 183 186 183 179 177 179 183 185 182 160 144 160 176 184 179 171 163 158 153 151 151 153 162 167 166 161 159 158 158 160 160 160 161 162 163 165 168 168 169 171 178 190 201 207 211 217 223 229 237 246 255 264 270 274 276 278 282 285 289 292 294 295 296 297 298 298 298 298 298
47 53 64 75 82 83 81 77 75 77 85 100 124 146 159 173 184 187 181 176 173 172 174 180 185 175 153 140 147 162 173 176 173 168 162 157 154 153 153 158 160 158 152 147 146 148 150 148 145 143 145 149 153 157 163 170 178 185 189 191 199 204 208 214 226 243 260 268 272 273 274 276 280 284 289 292 294 296 297 298 299 299 298 298 298 298
53 49 50 62 71 70 64 61 61 64 67 83 105 115 115 146 164 168 166 165 165 166 166 158 146 136 136 133 140 152 164 168 167 165 164 162 162 160 157 154 151 147 142 140 140 143 143 141 138 136 140 149 156 160 162 164 166 170 178 185 191 197 205 218 236 252 263 268 269 271 276 280 285 289 293 296 298 299 300 299 300 299 300 299 299 298
65 58 57 64 67 65 60 56 57 61 68 82 92 93 92 104 113 122 138 145 149 153 156 148 134 125 131 130 134 145 159 163 163 162 164 166 164 160 154 149 145 142 138 136 138 140 142 141 141 141 140 148 153 155 157 159 165 172 177 183 190 203 222 234 243 250 254 258 264 274 282 288 292 295 298 299 300 300 301 301 301 301 300 300 299 298
75 71 68 68 68 68 65 58 54 56 63 72 76 76 76 79 80 84 98 113 122 126 129 125 124 127 130 127 131 142 156 163 163 158 150 154 159 157 149 144 142 140 136 136 138 142 144 144 141 137 134 140 148 153 156 159 163 167 175 185 198 212 229 237 242 247 253 262 275 285 292 297 299 301 301 302 303 303 303 302 302 302 301 301 299 297
74 72 69 64 63 62 61 57 54 53 56 63 67 71 75 78 79 80 85 93 101 109 115 119 124 128 128 125 129 141 156 166 167 159 136 107 131 155 149 146 144 140 138 139 142 145 147 145 141 135 131 133 142 151 153 158 163 167 177 190 204 213 225 236 244 252 265 279 289 295 299 302 304 305 306 306 305 305 304 304 304 303 302 301 299 296
69 67 64 61 58 57 57 56 54 53 55 58 61 63 66 71 75 78 84 89 95 100 106 111 114 115 114 116 122 133 152 170 174 166 142 95 97 148 153 148 143 141 141 146 149 151 152 151 148 145 141 138 141 150 153 160 166 171 179 190 203 216 226 238 254 272 286 293 299 302 305 306 308 309 309 309 308 307 306 305 304 304 303 301 298 295
70 68 66 64 64 64 64 63 61 60 60 63 64 63 59 56 54 53 57 66 76 87 98 103 101 97 96 101 104 110 131 159 175 174 153 123 111 139 153 146 140 139 142 149 155 158 160 159 158 157 156 152 147 147 153 162 171 178 187 196 207 223 244 267 286 297 302 304 306 307 309 310 311 312 312 312 311 309 307 306 305 304 303 300 297 294
72 72 70 70 70 70 69 68 66 64 64 67 70 69 64 54 45 43 50 58 65 80 96 97 94 93 97 96 90 89 103 128 154 163 156 145 135 139 153 145 144 143 142 146 153 161 164 164 163 164 165 163 158 153 154 162 176 189 200 210 234 275 298 306 309 310 310 310 310 311 312 314 315 315 315 314 312 310 308 307 306 306 304 300 296 293
72 72 71 70 71 70 68 66 64 62 63 67 72 74 68 59 62 72 77 79 83 97 110 107 103 103 102 95 87 86 94 105 121 137 148 146 142 142 150 153 152 149 146 146 150 157 161 161 161 162 166 167 164 161 159 164 170 185 218 256 297 313 316 317 316 314 313 312 313 314 316 317 317 317 317 315 313 311 310 310 311 309 306 301 297 294
71 71 70 70 70 69 67 63 59 57 58 65 75 83 83 95 100 94 85 96 110 125 133 131 127 121 109 104 97 94 94 92 97 115 135 141 137 137 150 159 161 157 152 151 154 157 159 158 159 161 163 164 164 164 167 175 191 222 257 283 302 313 316 316 315 315 313 314 315 316 318 318 319 318 317 315 314 313 314 316 316 313 307 303 300 298
78 77 77 76 75 74 71 69 65 62 61 69 80 91 97 112 111 104 99 112 126 134 137 136 133 128 122 120 111 98 86 73 76 101 129 135 126 130 151 162 169 171 169 167 167 167 165 164 164 164 163 163 164 167 176 194 220 246 272 290 305 314 317 316 315 314 314 315 316 317 318 319 319 318 317 316 316 317 318 321 320 315 310 306 304 302
86 86 85 84 84 84 83 78 75 73 72 76 82 88 94 103 109 110 112 119 122 123 125 125 126 127 127 124 115 92 67 53 57 81 112 113 110 123 145 154 168 178 182 180 179 177 173 174 175 173 169 169 174 183 197 227 254 275 293 304 311 315 316 315 314 314 314 315 317 317 318 318 318 318 317 318 318 319 322 324 322 318 314 311 308 307
86 86 84 85 86 87 87 85 82 81 80 81 83 85 87 91 96 102 107 110 112 113 113 114 119 126 130 126 118 84 49 41 47 63 82 96 104 116 132 134 149 171 184 179 168 157 169 171 175 177 179 185 197 214 242 283 296 300 306 310 313 314 314 313 313 313 314 315 317 317 317 317 318 318 318 319 320 322 324 326 325 322 319 316 314 313
86 84 82 82 82 81 81 80 80 80 79 79 79 79 80 81 83 86 90 95 100 105 106 106 109 116 121 113 106 99 79 56 60 65 58 88 102 112 126 123 127 149 180 188 164 134 131 360 138 163 179 195 215 245 279 298 303 304 306 308 311 312 312 312 313 315 316 318 318 318 317 317 318 319 321 321 322 324 326 329 329 328 325 322 320 320
82 80 78 77 75 73 72 72 72 73 72 72 71 71 70 71 72 74 77 82 88 93 96 96 97 101 104 103 101 96 88 78 80 85 76 85 94 101 107 110 109 121 170 219 239 280 73 7 354 260 231 240 259 282 297 304 306 306 307 309 310 311 312 313 316 319 322 323 322 319 318 318 320 322 323 325 326 327 328 329 329 329 327 326 326 325
78 75 72 71 69 68 67 66 66 66 66 66 67 66 66 66 67 68 70 73 78 82 85 88 90 94 100 101 99 95 91 87 89 95 88 84 90 93 86 78 73 66 44 346 314 318 340 352 340 316 295 284 284 294 306 313 314 313 313 313 314 315 316 319 323 326 327 327 324 321 320 321 324 326 328 328 329 329 330 328 327 327 327 330 330 329
75 71 68 66 65 65 64 64 63 63 63 64 65 65 66 66 67 67 67 69 72 76 79 83 86 90 97 101 101 95 90 88 88 84 72 76 83 84 81 69 47 28 21 15 1 353 359 346 338 330 317 304 299 299 306 315 319 319 317 317 317 319 322 326 330 331 329 326 322 320 322 325 328 330 331 331 331 330 329 327 326 327 329 332 333 332
71 67 64 62 62 62 62 63 64 64 64 64 64 65 65 67 68 69 69 71 72 74 77 81 84 88 93 98 99 96 92 91 85 67 41 46 53 65 89 86 40 6 11 17 13 8 8 349 333 324 321 316 308 302 303 309 312 313 314 315 318 322 328 335 338 334 327 321 319 320 322 326 329 330 330 330 329 329 328 328 329 330 332 336 337 337
67 63 61 60 60 62 62 63 64 65 65 65 65 66 65 68 70 73 76 77 79 80 80 81 83 86 89 94 96 95 94 94 89 64 11 352 352 14 99 122 111 323 336 17 22 11 350 336 324 317 310 305 306 311 314 315 315 315 315 319 322 325 330 338 341 331 318 315 315 318 322 325 327 328 328 328 326 325 325 327 329 333 336 337 339 340
65 62 60 59 60 61 62 63 64 65 65 67 68 69 69 70 72 75 79 84 86 87 88 88 88 89 92 94 96 97 100 101 101 89 29 351 342 343 117 146 161 188 207 229 279 314 313 312 319 321 312 302 301 306 312 318 321 322 322 325 328 330 333 336 330 319 311 310 312 316 320 324 326 326 326 327 327 328 329 330 331 333 335 334 331 331
64 62 60 59 60 61 63 63 63 64 66 69 72 74 75 76 76 77 80 84 88 90 92 95 98 100 102 104 105 107 108 106 102 96 86 67 50 43 120 161 174 188 202 212 225 245 266 279 286 297 314 314 311 310 312 317 320 323 325 327 329 330 333 329 318 310 307 308 312 316 320 323 325 326 327 330 332 335 337 337 337 338 338 334 329 325
65 63 62 61 63 65 66 66 65 65 68 71 75 78 80 80 79 79 79 83 87 90 94 100 109 115 118 117 114 113 111 108 103 99 95 92 86 80 95 147 178 196 204 211 218 228 243 261 272 279 288 297 303 307 309 309 311 317 322 322 321 319 320 315 309 304 304 308 313 318 322 324 325 326 327 330 334 337 337 337 336 336 336 334 330 326
64 64 64 65 66 69 70 71 70 69 69 71 73 73 71 71 70 71 73 76 81 87 93 100 113 123 127 123 120 117 112 107 104 101 100 95 87 82 81 95 132 180 203 215 223 233 239 251 268 276 282 286 290 292 293 296 301 308 311 311 309 307 304 300 299 300 303 309 315 319 322 323 324 325 325 326 328 330 331 331 330 330 329 327 325 323
65 65 65 65 68 71 76 77 75 73 70 69 67 63 59 57 55 55 57 58 59 63 73 85 97 109 116 119 121 121 116 110 105 100 98 94 88 81 75 71 72 101 195 222 236 244 245 248 256 268 276 282 285 288 287 286 288 290 293 298 301 301 297 294 295 301 307 312 315 318 320 322 324 324 322 322 322 322 323 323 322 321 321 319 318 318
69 67 65 65 69 73 78 78 74 71 68 67 64 59 54 50 48 48 51 53 52 50 51 55 65 81 95 102 109 115 116 112 106 100 94 88 82 74 66 56 48 37 360 298 286 275 263 253 255 266 275 276 281 285 287 286 284 282 282 288 298 305 307 303 303 306 309 311 314 317 320 322 321 318 316 315 315 315 315 314 314 314 314 315 316 316
67 65 64 64 67 71 73 70 67 65 64 64 62 57 52 47 45 46 49 53 52 50 48 49 55 66 75 76 80 92 105 110 106 99 92 83 74 64 55 48 40 26 7 349 338 322 296 277 272 274 278 278 280 284 286 289 289 289 289 290 295 299 300 301 304 307 309 310 313 317 320 320 316 313 310 309 309 310 311 311 312 312 313 315 316 317
60 60 58 57 58 60 61 61 60 61 63 63 60 55 49 44 41 42 46 49 50 49 47 46 53 57 52 49 49 53 68 88 98 95 88 82 72 61 49 41 32 24 12 357 344 331 321 309 298 289 283 280 280 282 287 292 294 295 295 295 296 296 295 298 302 307 311 315 319 322 321 317 313 310 310 309 310 310 311 312 314 315 315 316 316 317
50 51 52 51 53 55 57 57 58 60 62 61 57 51 45 40 39 39 41 43 44 44 43 44 51 55 49 41 35 31 29 32 39 49 57 59 59 56 46 36 25 15 4 354 341 327 317 311 305 300 294 289 283 281 283 290 296 299 300 302 302 302 301 301 305 311 318 323 325 323 318 313 311 312 314 314 313 312 311 312 313 315 315 316 316 316
43 46 47 48 49 52 54 54 56 60 61 59 53 45 38 33 32 33 33 34 34 35 37 42 49 54 52 45 36 28 20 16 13 13 19 29 35 34 30 25 17 4 352 343 334 325 316 308 302 298 296 295 293 290 289 291 296 301 305 309 311 311 312 313 317 321 323 323 321 319 316 315 317 319 319 317 315 313 311 311 311 312 314 315 315 314
36 39 40 40 42 45 47 48 51 55 59 57 50 41 32 26 22 21 22 22 22 24 28 34 41 47 48 45 39 31 21 14 8 4 3 6 10 12 11 8 3 356 346 339 332 325 318 311 301 293 286 284 285 289 292 296 301 306 310 315 318 320 322 322 323 321 318 315 314 314 315 319 323 325 323 320 316 313 311 311 311 311 312 314 314 313
29 31 32 32 33 36 39 39 41 44 48 45 38 30 23 18 14 11 11 10 12 17 23 29 33 36 37 35 34 31 24 16 10 5 360 358 359 360 0 358 354 349 345 342 337 330 322 312 301 289 279 274 275 281 290 300 309 315 317 320 323 326 327 325 322 318 313 311 310 310 312 316 318 321 322 320 316 312 311 311 311 311 312 313 314 313
22 24 24 25 28 31 31 30 31 32 32 26 19 12 8 4 2 1 360 2 7 14 22 25 28 29 29 25 22 17 14 10 9 7 3 357 354 353 353 353 352 350 348 347 346 344 340 334 323 302 274 266 272 285 299 312 319 319 315 317 321 326 326 323 320 315 313 311 310 310 311 312 314 317 319 317 313 311 310 310 311 311 312 314 315 316
15 17 18 20 23 25 26 25 26 26 23 17 10 2 359 358 356 355 356 360 6 14 19 21 23 26 26 20 14 8 3 1 2 3 2 356 351 348 348 350 351 351 350 350 351 353 354 352 349 343 326 196 192 307 311 321 323 319 314 313 317 321 322 320 316 313 313 312 312 312 313 314 316 317 318 315 311 309 308 308 308 310 312 315 317 317